GW2280 Weather Reports


Display with metric or nautical units.
time (UTC)temp
F
wind
direction
speed
MPH
gust
MPH
rain 1hr
in
rain 24hr
in
rain mn
in
humidity
%
barometer
mb
20260831103519 57 360 5.0 10.0 0.00 0.01 0.00 81 1022.1
20260831103033 57 360 6.0 10.0 0.00 0.01 0.00 81 1021.9
20260831102520 57 360 5.0 12.0 0.00 0.01 0.00 81 1021.9
20260831102021 57 360 6.0 12.0 0.00 0.01 0.00 81 1021.8
20260831101539 57 360 6.0 12.0 0.00 0.01 0.00 81 1021.8
20260831101020 57 360 5.0 10.0 0.00 0.01 0.00 82 1021.8
20260831100519 57 360 6.0 11.0 0.00 0.01 0.00 81 1021.8
20260831100045 57 360 6.0 11.0 0.00 0.01 0.00 81 1021.8
20260831095516 57 360 5.0 10.0 0.00 0.01 0.00 81 1021.7
20260831095018 57 360 4.0 11.0 0.00 0.01 0.00 81 1021.6
20260831094543 58 360 5.0 11.0 0.00 0.01 0.00 81 1021.6
20260831094017 58 360 5.0 12.0 0.00 0.01 0.00 80 1021.5
20260831093520 58 360 6.0 12.0 0.00 0.01 0.00 80 1021.4
20260831093050 58 360 6.0 12.0 0.00 0.01 0.00 80 1021.3
20260831092522 58 360 6.0 12.0 0.00 0.01 0.00 80 1021.3
20260831092019 58 360 6.0 12.0 0.00 0.01 0.00 80 1021.2
20260831091534 58 360 6.0 12.0 0.00 0.01 0.00 80 1021.2
20260831091017 58 360 6.0 11.0 0.00 0.01 0.00 79 1021.1
20260831090516 58 360 6.0 12.0 0.00 0.01 0.00 79 1021.1
20260831090035 58 360 7.0 13.0 0.00 0.01 0.00 79 1021.0
20260831085524 58 360 7.0 13.0 0.00 0.01 0.00 79 1021.0
20260831085016 58 360 7.0 15.0 0.00 0.01 0.00 79 1020.9
20260831084534 58 360 8.0 15.0 0.00 0.01 0.00 80 1021.0
20260831084017 59 360 8.0 13.0 0.00 0.01 0.00 79 1020.9
20260831083520 59 360 7.0 13.0 0.00 0.01 0.00 79 1021.0
20260831083055 59 360 6.0 14.0 0.00 0.01 0.00 79 1021.0
20260831082519 59 360 8.0 15.0 0.00 0.01 0.00 79 1020.9
20260831082018 59 360 8.0 15.0 0.00 0.01 0.00 79 1020.8
20260831081534 59 360 7.0 13.0 0.00 0.01 0.00 80 1020.8
20260831081017 59 360 6.0 12.0 0.00 0.01 0.00 80 1020.9
20260831080518 59 360 6.0 12.0 0.00 0.01 0.00 80 1020.9
20260831075516 59 360 6.0 12.0 0.00 0.01 0.00 79 1020.8
20260831075017 59 360 6.0 12.0 0.00 0.01 0.00 79 1020.8
20260831074534 59 360 6.0 12.0 0.00 0.01 0.00 79 1020.8
20260831074017 59 360 6.0 13.0 0.00 0.01 0.00 79 1020.8
20260831073518 59 360 6.0 13.0 0.00 0.01 0.00 79 1020.7
20260831073038 60 360 6.0 14.0 0.00 0.01 0.00 79 1020.7
20260831072519 60 360 7.0 14.0 0.00 0.01 0.00 79 1020.6
20260831072018 60 360 7.0 13.0 0.00 0.01 0.00 79 1020.7
20260831071544 60 360 7.0 13.0 0.00 0.01 0.00 79 1020.7
20260831071019 60 360 6.0 12.0 0.00 0.01 0.00 78 1020.6
20260831070518 60 360 7.0 13.0 0.00 0.01 0.00 78 1020.6
20260831070037 61 360 6.0 13.0 0.00 0.01 0.00 78 1020.7
20260831065520 61 360 5.0 13.0 0.00 0.01 0.00 78 1020.7
20260831065020 61 360 4.0 13.0 0.00 0.01 0.00 78 1020.6
20260831064536 61 360 7.0 13.0 0.00 0.01 0.00 78 1020.5
20260831064018 61 360 7.0 12.0 0.00 0.01 0.00 78 1020.4
20260831063517 61 360 6.0 14.0 0.00 0.01 0.00 78 1020.4
20260831063035 61 360 6.0 14.0 0.00 0.01 0.00 77 1020.4
20260831062518 61 360 6.0 14.0 0.00 0.01 0.00 78 1020.4
20260831062017 61 360 6.0 13.0 0.00 0.01 0.00 78 1020.4
20260831061536 61 360 7.0 13.0 0.00 0.01 0.00 79 1020.5
20260831061020 61 360 6.0 11.0 0.00 0.01 0.00 80 1020.5
20260831060519 60 360 5.0 10.0 0.00 0.01 0.00 81 1020.4
20260831060038 60 360 6.0 12.0 0.00 0.01 0.00 81 1020.3
20260831055519 60 360 5.0 12.0 0.00 0.01 0.00 82 1020.2
20260831055019 60 360 6.0 12.0 0.00 0.01 0.00 83 1020.1
20260831054537 60 360 5.0 11.0 0.00 0.01 0.00 83 1020.0
20260831054018 60 360 5.0 10.0 0.00 0.01 0.00 84 1019.9
20260831053518 60 360 5.0 9.0 0.00 0.01 0.00 84 1020.0
20260831053102 60 360 4.0 9.0 0.00 0.01 0.00 83 1020.0
20260831052518 60 360 4.0 11.0 0.00 0.01 0.00 83 1020.0
20260831052017 60 360 4.0 11.0 0.00 0.01 0.00 83 1019.9
20260831051538 61 360 5.0 12.0 0.00 0.01 0.00 82 1019.8
20260831051019 60 360 6.0 12.0 0.00 0.01 0.00 82 1019.9
20260831050520 60 360 6.0 12.0 0.00 0.01 0.00 82 1019.8
20260831050039 60 360 6.0 12.0 0.00 0.01 0.00 82 1019.7
20260831045521 60 360 6.0 12.0 0.00 0.01 0.00 82 1019.6
20260831045018 61 360 6.0 10.0 0.00 0.01 0.00 82 1019.6
20260831044626 61 360 5.0 10.0 0.00 0.01 0.00 82 1019.7
20260831044017 61 360 6.0 10.0 0.00 0.01 0.00 82 1019.7
20260831043517 61 360 6.0 10.0 0.00 0.01 0.00 82 1019.8
20260831043036 60 360 5.0 9.0 0.00 0.01 0.00 82 1019.8
20260831042521 60 360 4.0 10.0 0.00 0.01 0.00 83 1019.7
20260831042017 60 360 5.0 10.0 0.00 0.01 0.00 83 1019.7
20260831041536 60 360 7.0 10.0 0.00 0.01 0.00 83 1019.7
20260831041019 59 360 5.0 9.0 0.00 0.01 0.00 84 1019.7
20260831040519 59 360 4.0 9.0 0.00 0.01 0.00 86 1019.7
20260831040039 59 360 3.0 6.0 0.00 0.01 0.00 87 1019.6
20260831035517 60 360 3.0 5.0 0.00 0.01 0.01 86 1019.7
20260831035019 60 360 3.0 8.0 0.00 0.01 0.01 86 1019.7
20260831034535 61 360 2.0 8.0 0.00 0.01 0.01 85 1019.7
20260831034018 61 360 3.0 8.0 0.00 0.01 0.01 84 1019.8
20260831033518 61 360 2.0 8.0 0.00 0.01 0.01 84 1019.8
20260831033047 61 360 3.0 6.0 0.00 0.01 0.01 84 1019.8
20260831032521 62 360 2.0 6.0 0.00 0.01 0.01 84 1019.7
20260831032020 62 360 2.0 8.0 0.00 0.01 0.01 84 1019.6
20260831031538 62 360 3.0 10.0 0.00 0.01 0.01 84 1019.7
20260831031019 63 360 4.0 14.0 0.00 0.01 0.01 84 1019.7
20260831030521 63 360 4.0 14.0 0.00 0.01 0.01 83 1019.9
20260831030036 63 360 6.0 14.0 0.00 0.01 0.01 82 1020.0
20260831025517 63 360 2.0 12.0 0.00 0.01 0.01 83 1019.6
20260831025018 63 360 7.0 18.0 0.00 0.01 0.01 84 1020.1
20260831024535 63 360 8.0 18.0 0.00 0.01 0.01 86 1020.0
20260831024016 64 360 9.0 17.0 0.00 0.01 0.01 91 1019.9
20260831023515 64 360 8.0 17.0 0.01 0.01 0.01 93 1019.9
20260831023035 64 360 7.0 16.0 0.01 0.01 0.01 93 1019.7
20260831022520 64 360 6.0 17.0 0.01 0.01 0.01 93 1019.5
20260831022023 64 360 7.0 17.0 0.01 0.01 0.01 92 1019.5
20260831021534 64 360 8.0 15.0 0.01 0.01 0.01 92 1019.5
20260831021019 64 360 8.0 15.0 0.01 0.01 0.01 92 1019.5
20260831020517 64 360 6.0 15.0 0.01 0.01 0.01 91 1019.4
20260831020036 65 360 5.0 14.0 0.01 0.01 0.01 91 1019.1
20260831015517 65 360 6.0 14.0 0.01 0.01 0.01 90 1019.2
20260831015016 65 360 7.0 17.0 0.01 0.01 0.01 89 1019.2
20260831014535 66 360 8.0 19.0 0.01 0.01 0.01 87 1019.1
20260831014022 66 360 7.0 19.0 0.00 0.00 0.00 85 1018.9
20260831013520 67 360 9.0 19.0 0.00 0.00 0.00 84 1019.1
20260831013036 68 360 10.0 20.0 0.00 0.00 0.00 82 1019.1
20260831012519 68 360 11.0 20.0 0.00 0.00 0.00 80 1019.0
20260831012018 68 360 8.0 15.0 0.00 0.00 0.00 79 1018.8
20260831011535 68 360 5.0 9.0 0.00 0.00 0.00 78 1018.8
20260831011017 68 360 5.0 9.0 0.00 0.00 0.00 78 1018.8
20260831010516 68 360 4.0 9.0 0.00 0.00 0.00 77 1018.7
20260831010055 68 360 3.0 8.0 0.00 0.00 0.00 77 1018.6
20260831005517 68 360 3.0 8.0 0.00 0.00 0.00 77 1018.6
20260831005019 68 360 3.0 8.0 0.00 0.00 0.00 76 1018.5
20260831004539 69 360 4.0 9.0 0.00 0.00 0.00 76 1018.4
20260831004020 69 360 3.0 9.0 0.00 0.00 0.00 76 1018.4
20260831003525 69 360 3.0 9.0 0.00 0.00 0.00 76 1018.3
20260831003037 69 360 3.0 10.0 0.00 0.00 0.00 76 1018.2
20260831002516 69 360 4.0 10.0 0.00 0.00 0.00 75 1018.1
20260831002016 69 360 3.0 10.0 0.00 0.00 0.00 75 1018.1
20260831001540 69 360 4.0 10.0 0.00 0.00 0.00 75 1018.1
20260831001018 69 360 5.0 10.0 0.00 0.00 0.00 74 1018.2
20260831000520 69 360 4.0 8.0 0.00 0.00 0.00 74 1018.1
20260831000037 69 360 3.0 8.0 0.00 0.00 0.00 74 1018.0
20260830235517 69 360 3.0 8.0 0.00 0.00 0.00 74 1017.9
20260830235016 69 360 4.0 8.0 0.00 0.00 0.00 74 1017.9
20260830234534 69 360 3.0 8.0 0.00 0.00 0.00 74 1017.8
20260830234018 69 360 3.0 8.0 0.00 0.00 0.00 74 1017.8
20260830233521 69 360 2.0 5.0 0.00 0.00 0.00 74 1017.8
20260830233040 69 360 1.0 6.0 0.00 0.00 0.00 74 1017.7
20260830232520 70 360 3.0 8.0 0.00 0.00 0.00 74 1017.7
20260830232020 70 360 3.0 8.0 0.00 0.00 0.00 74 1017.7
20260830231539 70 360 3.0 8.0 0.00 0.00 0.00 73 1017.8
20260830231019 70 360 2.0 8.0 0.00 0.00 0.00 73 1017.7
20260830230516 70 360 3.0 8.0 0.00 0.00 0.00 73 1017.8
20260830230039 70 360 4.0 9.0 0.00 0.00 0.00 73 1017.8
20260830225518 70 360 4.0 9.0 0.00 0.00 0.00 73 1017.8
20260830225016 70 360 4.0 9.0 0.00 0.00 0.00 73 1017.8
20260830224539 71 360 4.0 11.0 0.00 0.00 0.00 72 1017.8
20260830224021 71 360 4.0 11.0 0.00 0.00 0.00 71 1017.8
20260830223521 71 360 4.0 9.0 0.00 0.00 0.00 71 1017.9
20260830223037 71 360 4.0 9.0 0.00 0.00 0.00 71 1018.0
20260830222520 71 360 4.0 10.0 0.00 0.00 0.00 71 1018.0
20260830222019 71 360 5.0 10.0 0.00 0.00 0.00 71 1018.1
20260830221535 71 360 5.0 10.0 0.00 0.00 0.00 70 1018.1
20260830221019 72 360 4.0 9.0 0.00 0.00 0.00 70 1018.0
20260830220516 72 360 4.0 10.0 0.00 0.00 0.00 70 1017.9
20260830220041 72 360 4.0 11.0 0.00 0.00 0.00 69 1017.9
20260830215521 72 360 5.0 11.0 0.00 0.00 0.00 69 1017.9
20260830215017 72 360 3.0 11.0 0.00 0.00 0.00 67 1018.0
20260830214536 73 360 5.0 13.0 0.00 0.00 0.00 67 1018.1
20260830214016 73 360 5.0 13.0 0.00 0.00 0.00 67 1018.1
20260830213516 73 360 5.0 13.0 0.00 0.00 0.00 67 1018.1
20260830213052 73 360 5.0 14.0 0.00 0.00 0.00 67 1018.1
20260830212518 73 360 6.0 14.0 0.00 0.00 0.00 66 1018.2
20260830212018 73 360 6.0 14.0 0.00 0.00 0.00 65 1018.2
20260830211539 73 279 5.0 14.0 0.00 0.00 0.00 65 1018.3
20260830211021 73 269 5.0 14.0 0.00 0.00 0.00 66 1018.4
20260830210518 73 242 5.0 15.0 0.00 0.00 0.00 65 1018.4
20260830210040 73 277 7.0 15.0 0.00 0.00 0.00 65 1018.4
20260830205520 74 259 8.0 16.0 0.00 0.00 0.00 65 1018.3
20260830205018 73 249 5.0 16.0 0.00 0.00 0.00 67 1018.4
20260830204541 73 271 6.0 14.0 0.00 0.00 0.00 66 1018.5
20260830204019 73 286 7.0 13.0 0.00 0.00 0.00 68 1018.6
20260830203519 72 360 5.0 11.0 0.00 0.00 0.00 68 1018.5
20260830203054 72 360 5.0 10.0 0.00 0.00 0.00 68 1018.5
20260830202518 72 360 3.0 12.0 0.00 0.00 0.00 67 1018.5
20260830202018 72 360 5.0 12.0 0.00 0.00 0.00 67 1018.5
20260830201536 72 360 6.0 14.0 0.00 0.00 0.00 68 1018.6
20260830201017 72 360 7.0 14.0 0.00 0.00 0.00 67 1018.7
20260830200517 72 360 7.0 14.0 0.00 0.00 0.00 68 1018.7
20260830200034 72 360 5.0 14.0 0.00 0.00 0.00 69 1018.7
20260830195517 72 360 7.0 15.0 0.00 0.00 0.00 68 1018.7
20260830195020 72 360 7.0 15.0 0.00 0.00 0.00 68 1018.8
20260830194537 72 360 7.0 18.0 0.00 0.00 0.00 68 1018.9
20260830194020 72 360 6.0 18.0 0.00 0.00 0.00 68 1018.9
20260830193517 72 360 10.0 19.0 0.00 0.00 0.00 68 1018.9
20260830193037 72 360 5.0 19.0 0.00 0.00 0.00 68 1019.0
20260830192517 71 360 8.0 19.0 0.00 0.00 0.00 66 1018.9
20260830192017 71 360 7.0 20.0 0.00 0.00 0.00 68 1019.1
20260830191537 71 360 10.0 20.0 0.00 0.00 0.00 69 1019.1
20260830191020 71 360 6.0 16.0 0.00 0.00 0.00 71 1019.1
20260830190519 71 360 8.0 16.0 0.00 0.00 0.00 70 1019.2
20260830190039 71 360 7.0 16.0 0.00 0.00 0.00 72 1019.3
20260830185518 71 360 6.0 18.0 0.00 0.00 0.00 72 1019.3
20260830185023 71 360 8.0 18.0 0.00 0.00 0.00 72 1019.4
20260830184539 71 360 7.0 14.0 0.00 0.00 0.00 73 1019.5
20260830184019 71 360 6.0 14.0 0.00 0.00 0.00 73 1019.5
20260830183518 71 360 6.0 14.0 0.00 0.00 0.00 73 1019.6
20260830183036 71 360 4.0 15.0 0.00 0.00 0.00 74 1019.7
20260830182520 71 360 6.0 15.0 0.00 0.00 0.00 74 1019.7
20260830182016 71 360 6.0 15.0 0.00 0.00 0.00 74 1019.7
20260830181539 71 360 4.0 13.0 0.00 0.00 0.00 75 1019.8
20260830181020 70 360 6.0 13.0 0.00 0.00 0.00 76 1019.9
20260830180519 70 360 4.0 14.0 0.00 0.00 0.00 75 1020.0
20260830180035 70 360 5.0 16.0 0.00 0.00 0.00 75 1020.1
20260830175516 70 360 8.0 17.0 0.00 0.00 0.00 74 1020.0
20260830175018 70 360 7.0 17.0 0.00 0.00 0.00 74 1020.1
20260830174537 70 360 7.0 17.0 0.00 0.00 0.00 74 1020.2
20260830174017 70 360 9.0 16.0 0.00 0.00 0.00 73 1020.2
20260830173517 70 360 5.0 15.0 0.00 0.00 0.00 73 1020.5
20260830173040 70 360 6.0 19.0 0.00 0.00 0.00 74 1020.5
20260830172519 70 360 7.0 19.0 0.00 0.00 0.00 73 1020.5
20260830172019 70 360 5.0 17.0 0.00 0.00 0.00 74 1020.3
20260830171535 70 360 5.0 17.0 0.00 0.00 0.00 74 1020.2
20260830171021 70 360 8.0 17.0 0.00 0.00 0.00 74 1020.3
20260830170519 70 360 6.0 16.0 0.00 0.00 0.00 74 1020.3
20260830170035 70 360 7.0 16.0 0.00 0.00 0.00 73 1020.3
20260830165516 71 360 6.0 13.0 0.00 0.00 0.00 72 1020.3
20260830165020 71 360 4.0 12.0 0.00 0.00 0.00 70 1020.2
20260830164538 72 360 5.0 14.0 0.00 0.00 0.00 69 1020.4
20260830164019 72 360 6.0 14.0 0.00 0.00 0.00 69 1020.7
20260830163520 72 360 5.0 14.0 0.00 0.00 0.00 68 1020.7
20260830163037 73 360 7.0 14.0 0.00 0.00 0.00 67 1020.6
20260830162518 73 310 5.0 14.0 0.00 0.00 0.00 67 1020.7
20260830162018 73 302 8.0 14.0 0.00 0.00 0.00 66 1020.7
20260830161543 74 307 7.0 13.0 0.00 0.00 0.00 66 1020.7
20260830161019 74 284 6.0 18.0 0.00 0.00 0.00 65 1020.7
20260830160517 74 279 6.0 18.0 0.00 0.00 0.00 65 1020.8
20260830160034 74 325 9.0 18.0 0.00 0.00 0.00 64 1020.8
20260830155518 75 360 8.0 16.0 0.00 0.00 0.00 63 1020.8
20260830155020 75 266 7.0 17.0 0.00 0.00 0.00 64 1020.7
20260830154535 75 307 9.0 17.0 0.00 0.00 0.00 64 1020.8
20260830154021 75 267 9.0 18.0 0.00 0.00 0.00 65 1020.7
20260830153520 75 263 7.0 21.0 0.00 0.00 0.00 64 1020.7
20260830153039 75 285 9.0 21.0 0.00 0.00 0.00 64 1020.8
20260830152516 75 261 7.0 21.0 0.00 0.00 0.00 65 1020.8
20260830152016 74 267 8.0 16.0 0.00 0.00 0.00 66 1020.8
20260830151537 74 298 5.0 14.0 0.00 0.00 0.00 67 1020.8
20260830151016 73 281 8.0 17.0 0.00 0.00 0.00 66 1020.9
20260830150517 73 224 5.0 17.0 0.00 0.00 0.00 67 1020.9
20260830150106 72 284 7.0 13.0 0.00 0.00 0.00 68 1021.0
20260830145516 72 272 3.0 12.0 0.00 0.00 0.00 70 1020.9
20260830145021 72 265 6.0 12.0 0.00 0.00 0.00 70 1021.0
20260830144537 71 273 3.0 11.0 0.00 0.00 0.00 71 1021.0
20260830144018 71 278 5.0 11.0 0.00 0.00 0.00 71 1020.9
20260830143519 71 275 3.0 11.0 0.00 0.00 0.00 70 1021.0
20260830143042 70 248 5.0 12.0 0.00 0.00 0.00 72 1021.0
20260830142546 70 272 6.0 12.0 0.00 0.00 0.00 73 1021.1
20260830142017 69 360 4.0 15.0 0.00 0.00 0.00 74 1021.1
20260830141534 69 360 7.0 15.0 0.00 0.00 0.00 74 1021.0
20260830141020 69 360 5.0 12.0 0.00 0.00 0.00 75 1021.1
20260830140516 68 360 6.0 14.0 0.00 0.00 0.00 75 1021.0
20260830140040 68 360 5.0 14.0 0.00 0.00 0.00 76 1021.0
20260830135523 68 360 4.0 14.0 0.00 0.00 0.00 76 1021.1
20260830135019 67 360 4.0 12.0 0.00 0.00 0.00 76 1021.0
20260830134541 67 360 5.0 12.0 0.00 0.00 0.00 75 1021.1
20260830134018 66 360 2.0 11.0 0.00 0.00 0.00 76 1021.0
20260830133517 66 360 5.0 12.0 0.00 0.00 0.00 76 1021.0
20260830133044 66 360 6.0 14.0 0.00 0.00 0.00 76 1021.1
20260830132518 65 360 6.0 14.0 0.00 0.00 0.00 76 1021.1
20260830132019 65 360 7.0 14.0 0.00 0.00 0.00 77 1021.1
20260830131534 65 360 6.0 12.0 0.00 0.00 0.00 77 1021.2
20260830131018 64 360 5.0 12.0 0.00 0.00 0.00 77 1021.3
20260830130520 64 360 6.0 12.0 0.00 0.00 0.00 77 1021.2
20260830130034 64 360 4.0 12.0 0.00 0.00 0.00 77 1021.2
20260830125517 64 360 4.0 13.0 0.00 0.00 0.00 77 1021.3
20260830125020 64 360 5.0 13.0 0.00 0.00 0.00 77 1021.3
20260830124534 63 360 6.0 13.0 0.00 0.00 0.00 77 1021.4
20260830124021 63 360 7.0 15.0 0.00 0.00 0.00 78 1021.4
20260830123519 63 360 7.0 15.0 0.00 0.00 0.00 78 1021.3
20260830123038 63 360 8.0 15.0 0.00 0.00 0.00 79 1021.2
20260830122518 62 360 7.0 14.0 0.00 0.00 0.00 79 1021.2
20260830122017 62 360 7.0 14.0 0.00 0.00 0.00 80 1021.3
20260830121544 61 360 6.0 13.0 0.00 0.00 0.00 80 1021.4
20260830121020 61 360 6.0 14.0 0.00 0.00 0.00 80 1021.4
20260830120520 61 360 6.0 14.0 0.00 0.00 0.00 80 1021.4
20260830120036 61 360 6.0 13.0 0.00 0.00 0.00 80 1021.5
20260830115519 61 360 5.0 11.0 0.00 0.00 0.00 80 1021.6
20260830115018 61 360 5.0 10.0 0.00 0.00 0.00 80 1021.5
20260830114534 61 360 3.0 8.0 0.00 0.00 0.00 79 1021.5
20260830114017 61 360 3.0 9.0 0.00 0.00 0.00 79 1021.6
20260830113517 61 360 3.0 9.0 0.00 0.00 0.00 79 1021.6
20260830113037 61 360 3.0 9.0 0.00 0.00 0.00 78 1021.6
20260830112517 61 360 3.0 9.0 0.00 0.00 0.00 78 1021.5
20260830112017 61 360 4.0 9.0 0.00 0.00 0.00 78 1021.5
20260830111535 61 360 4.0 10.0 0.00 0.00 0.00 78 1021.5
20260830111050 61 360 5.0 10.0 0.00 0.00 0.00 79 1021.5
20260830110520 60 360 5.0 12.0 0.00 0.00 0.00 79 1021.4
20260830110039 60 360 5.0 12.0 0.00 0.00 0.00 78 1021.4
20260830105521 60 360 5.0 11.0 0.00 0.00 0.00 79 1021.4
20260830105023 60 360 5.0 10.0 0.00 0.00 0.00 79 1021.3
20260830104536 60 360 5.0 11.0 0.00 0.00 0.00 79 1021.3
20260830104018 60 360 4.0 11.0 0.00 0.00 0.00 79 1021.3